User: anonymous   Login
Location: Bothell
(47.7630°N, 122.2040°W)
Time: 15:34:49
(UTC-07:00)
Language:

Oscar 16 - Orbit

View from above orbital plane
View from above orbital plane
View from above satellite
View from above satellite

Ground track
Ground track

The orbit data is extracted from the following two-line orbital elements,

1 20439U 90005D   16120.86108758  .00000051  00000-0  35115-4 0  9990
2 20439  98.5714  57.9037 0009892 306.6938 124.6514 14.32626140372226
Epoch (UTC): 29 April 2016 20:39:57
Eccentricity: 0.0009892
inclination: 98.5714°
perigee height: 776 km
apogee height: 790 km
right ascension of ascending node: 57.9037°
argument of perigee: 306.6938°
revolutions per day: 14.32626140
mean anomaly at epoch: 124.6514°
orbit number at epoch: 37222

The dashed part of the orbit path shows where the satellite is in the earth's shadow,  

DLR